SCP
0 0 0 0 0 0 0 0 0 0 0 0 0 0 0 0 0 0 0 0 0 0 0 0 0 0 0 0 0 0 0 0 0 0 0 0 0 0
0 0 0 0 0 0 0 0 0 0 0 0 0 0 0 0 0 0 0 0 0 0 0 0 0 0 0 0 0 0 0 0 0 0 0 0 0 0
0 0 0 0 0 0 0 0 0 0 0 0 0 0 0 0 0 0 0 0 0 0 0 0 0 0 0 0 0 0 0 0 0 0 0 0 0 0
0 0 0 0 0 0 0 0 0 0 0 0 0 0 0 0 0 0 0 0 0 0 0 0 0 0 0 0 0 0 0 0 0 0 0 0 0 0
0 0 0 0 0 0 0 0 0 0 0 0 0 0 0 0 0 0 0 0 0 0 0 0 0 0 0 0 0 0 0 0 0 0 0 0 0 0
0 0 0 0 0 0 0 0 0 0 0 0 0 0 0 0 0 0 0 0 0 0 0 0 0 0 0 0 0 0 0 0 0 0 0 0 0 0
0 0 0 0 0 0 0 0 0 0 0 0 0 0 0 0 0 0 0 0 0 0 0 0 0 0 0 0 0 0 0 0 0 0 0 0 0 0
0 0 0 0 0 0 0 0 0 0 0 0 0 0 0 0 0 0 0 0 0 0 0 0 0 0 0 0 0 0 0 0 0 0 0 0 0 0
0 0 0 0 0 0 0 0 0 0 0 0 0 0 0 0 0 0 0 0 0 0 0 0 0 0 0 0 0 0 0 0 0 0 0 0 0 0
0 0 0 0 0 0 0 0 0 0 0 0 0 0 0 0 0 0 0 0 0 0 0 0 0 0 0 0 0 0 0 0 0 0 0 0 0 0
0 0 0 0 0 0 0 0 0 0 0 0 0 0 0 0 0 0 0 0 0 0 0 0 0 0 0 0 0 0 0 0 0 0 0 0 0 0
0 0 0 0 0 0 0 0 0 0 0 0 0 0 0 0 0 0 0 0 0 0 0 0 0 0 0 0 0 0 0 0 0 0 0 0 0 0
0 0 0 0 0 0 0 0 0 0 0 0 0 0 0 0 0 0 0 0 0 0 0 0 0 0 0 0 0 0 0 0 0 0 0 0 0 0
0 0 0 0 0 0 0 0 0 0 0 0 0 0 0 0 0 0 0 0 0 0 0 0 0 0 0 0 0 0 0 0 0 0 0 0 0 0
0 0 0 0 0 0 0 0 0 0 0 0 0 0 0 0 0 0 0 0 0 0 0 0 0 0 0 0 0 0 0 0 0 0 0 0 0 0
0 0 0 0 0 0 0 0 0 0 0 0 0 0 0 0 0 0 0 0 0 0 0 0 0 0 0 0 0 0 0 0 0 0 0 0 0 0
0 0 0 0 0 0 0 0 0 0 0 0 0 0 0 0 0 0 0 0 0 0 0 0 0 0 0 0 0 0 0 0 0 0 0 0 0 0
0 0 0 0 0 0 0 0 0 0 0 0 0 0 0 0 0 0 0 0 0 0 0 0 0 0 0 0 0 0 0 0 0 0 0 0 0 0
0 0 0 0 0 0 0 0 0 0 0 0 0 0 0 0 0 0 0 0 0 0 0 0 0 0 0 0 0 0 0 0 0 0 0 0 0 0
0 0 0 0 0 0 0 0 0 0 0 0 0 0 0 0 0 0 0 0 0 0 0 0 0 0 0 0 0 0 0 0 0 0 0 0 0 0
0 0 0 0 0 0 0 0 0 0 0 0 0 0 0 0 0 0 0 0 0 0 0 0 0 0 0 0 0 0 0 0 0 0 0 0 0 0
0 0 0 0 0 0 0 0 0 0 0 0 0 0 0 0 0 0 0 0 0 0 0 0 0 0 0 0 0 0 0 0 0 0 0 0 0 0
0 0 0 0 0 0 0 0 0 0 0 0 0 0 0 0 0 0 0 0 0 0 0 0 0 0 0 0 0 0 0 0 0 0 0 0 0 0
Wind_Speed
1 1 1 0 0 1 1 1 2 2 3 2 1 1 2 3 5 4 4 9 10 10 9 9 8 8 8 8 9 9 9 9 9 9 9 10 10 11
1 1 1 1 1 1 1 1 1 2 4 2 2 3 4 4 7 5 5 10 10 10 9 9 8 8 8 8 9 9 9 9 10 10 9 10 11 11
1 1 2 1 1 1 1 1 1 2 4 4 3 3 3 4 5 4 5 5 5 10 10 9 9 9 9 9 9 9 9 9 9 10 10 10 11 11
2 2 2 1 2 2 2 2 2 2 3 6 4 3 3 4 4 5 5 5 5 9 10 10 10 9 9 9 9 8 9 9 9 10 10 11 11 11
3 3 3 2 2 2 3 3 2 3 3 4 5 3 3 3 4 5 5 4 5 7 9 9 10 10 9 9 9 9 9 9 9 10 10 10 11 11
2 3 3 4 4 3 3 3 3 3 3 4 5 4 4 3 3 4 5 4 5 5 7 7 8 9 10 10 10 10 10 10 10 10 11 10 10 10
2 3 3 4 6 5 4 3 3 3 3 4 5 4 4 3 4 4 6 5 5 4 4 4 4 4 5 8 10 10 11 11 11 11 11 11 11 11
3 3 3 4 5 7 8 8 7 5 5 4 5 5 6 5 4 4 5 6 6 2 3 5 4 5 5 4 9 11 12 12 12 12 12 12 12 12
4 4 4 4 5 3 6 8 8 9 9 7 7 7 6 5 5 6 6 6 7 5 4 7 4 6 5 6 11 12 12 13 13 13 13 13 13 13
4 4 5 4 5 5 4 4 5 6 7 6 6 7 6 6 6 7 8 8 7 5 4 7 5 6 6 5 11 12 13 12 12 13 13 13 13 14
4 4 4 4 7 8 5 5 6 6 7 9 10 10 11 11 9 5 5 6 8 6 3 5 5 5 5 5 7 10 11 12 12 13 14 14 13 13
3 4 6 7 8 8 5 5 6 6 5 5 6 7 7 8 10 7 5 6 7 6 3 4 5 4 5 4 4 4 6 10 13 13 13 14 13 8
3 4 4 8 9 9 8 6 8 7 5 4 4 4 4 4 5 5 5 6 7 7 4 3 5 4 5 6 4 4 4 5 6 7 10 13 14 10
4 4 4 8 9 9 7 8 10 8 4 4 4 5 5 5 4 5 6 6 7 9 7 5 5 5 6 7 7 4 4 5 5 6 5 10 11 13
4 6 7 8 8 6 8 9 8 4 4 5 5 5 5 5 4 4 5 6 7 8 7 7 7 6 6 8 7 6 6 5 4 5 5 5 6 6
4 5 7 8 7 6 6 5 4 4 5 5 5 5 4 4 5 4 5 5 6 6 6 7 7 7 7 8 8 8 6 5 5 5 6 7 6 6
3 3 3 3 3 3 3 3 3 3 4 4 5 5 5 5 5 4 5 5 6 7 6 5 5 6 8 8 8 8 7 7 6 6 6 8 7 6
4 3 3 3 3 3 4 4 3 4 4 4 5 5 5 5 5 5 5 5 6 7 6 5 4 5 5 6 9 9 7 7 6 6 6 8 9 6
3 3 3 3 4 4 4 4 4 4 4 4 5 5 5 5 5 5 5 6 6 7 6 5 4 5 7 9 6 7 7 7 6 6 6 7 9 8
2 3 4 4 4 4 4 4 4 4 4 5 5 5 5 6 6 6 6 6 7 7 7 5 5 6 8 9 8 7 8 7 6 7 7 7 8 10
3 3 4 4 4 4 4 4 5 5 5 5 5 6 5 6 6 6 6 9 8 7 8 7 6 9 7 6 8 8 6 9 10 8 7 7 8 7
3 4 4 4 4 4 4 5 5 5 5 5 5 5 5 6 7 8 7 7 7 7 8 7 5 5 5 7 10 10 9 7 9 13 13 12 7 7
3 3 4 4 4 4 4 5 6 5 5 5 6 6 6 6 6 7 7 7 7 7 7 7 6 5 6 7 8 9 10 9 6 7 8 11 15 17
Wind_Direction
163 153 174 211 203 206 188 184 192 261 269 262 273 303 318 317 321 323 322 320 324 315 315 318 320 320 319 317 316 316 316 315 310 302 296 290 285 281
175 160 206 237 214 230 215 223 217 226 258 259 265 301 312 311 314 315 308 317 316 312 309 312 314 314 312 311 310 309 308 306 304 299 298 298 295 288
200 195 221 221 216 224 228 229 237 233 258 277 272 292 290 296 307 301 295 297 299 306 302 305 306 306 305 303 302 303 305 303 301 299 294 294 297 294
219 222 237 237 232 227 228 234 239 240 248 276 283 282 277 283 289 292 297 298 288 301 298 299 299 299 299 299 297 299 301 302 300 298 295 293 295 295
224 228 237 228 243 248 247 243 245 255 250 264 281 283 282 284 293 292 290 288 290 299 299 294 292 294 294 294 296 296 296 296 297 297 295 292 292 293
239 237 237 230 237 242 251 247 248 254 256 261 274 283 282 283 282 292 298 292 292 298 290 287 288 292 293 292 292 293 292 291 292 294 293 290 289 289
246 248 249 251 254 253 256 246 244 253 260 264 271 282 283 289 285 287 290 297 286 277 282 280 283 278 281 284 284 286 285 286 288 290 291 289 286 284
248 256 258 255 256 264 268 266 255 250 253 260 270 270 274 276 285 287 293 298 292 274 272 278 273 274 272 265 280 283 283 285 286 286 289 287 283 282
245 251 260 258 268 265 272 276 271 263 257 256 260 264 271 273 282 285 280 281 278 285 289 278 268 271 273 275 280 282 283 283 281 283 285 285 280 277
242 243 248 253 252 257 260 266 268 269 266 262 255 263 267 269 266 272 279 283 278 271 266 274 272 273 277 269 275 278 282 283 284 285 287 285 282 280
246 247 245 247 253 260 262 266 274 276 278 272 269 270 272 275 274 277 277 283 286 281 258 262 275 283 275 266 271 277 280 282 284 285 286 285 283 281
253 252 251 252 257 262 258 254 267 273 275 278 277 277 274 273 275 266 264 273 281 282 259 257 274 288 286 269 264 270 273 280 284 286 287 285 284 276
252 259 255 256 262 265 265 258 264 275 272 270 273 273 271 266 267 261 254 257 265 267 276 278 277 274 270 285 284 274 270 275 278 280 282 285 284 278
251 258 258 262 266 269 272 269 274 280 273 269 269 270 270 270 269 264 261 258 258 264 269 269 268 268 273 277 278 279 274 269 269 273 273 281 277 275
259 260 267 272 276 276 275 275 274 269 265 266 267 270 271 269 269 273 274 271 270 266 266 263 263 265 262 267 274 277 284 278 262 269 274 269 263 263
263 261 270 272 276 279 285 284 270 259 260 263 269 273 275 272 269 269 274 277 278 277 267 260 257 257 260 264 267 270 267 270 279 275 274 270 263 256
258 263 263 266 262 265 267 266 266 268 269 263 264 269 274 276 275 270 267 270 269 276 281 275 263 255 254 258 263 264 267 268 269 276 277 275 266 259
271 261 263 262 262 265 269 272 270 267 267 268 266 266 269 272 278 277 270 265 267 271 275 278 282 281 274 261 243 259 264 268 273 272 268 271 272 264
270 260 262 266 267 265 266 267 270 270 268 267 268 267 267 268 270 272 274 273 272 271 270 268 263 264 271 276 264 236 255 267 270 268 259 258 267 272
260 258 262 264 266 266 266 268 270 272 269 267 267 267 268 269 269 269 270 270 273 275 274 266 256 253 256 269 278 273 254 257 263 267 267 267 267 273
263 261 264 265 268 268 269 270 270 270 269 267 267 266 265 267 269 268 267 271 273 272 273 272 268 273 267 269 271 271 263 256 260 262 264 269 273 271
266 267 270 269 270 271 270 270 271 270 269 267 267 266 265 263 264 266 266 267 267 267 270 275 278 273 258 259 266 275 280 276 269 269 261 255 257 260
272 274 275 274 273 272 269 267 268 269 268 267 267 266 265 265 263 262 265 266 267 269 273 276 274 263 260 260 266 271 276 278 275 272 267 265 265 268